Main page
METAR-TAF:

METAR-TAF

Airports :

Srinagar, India

Srinagar International Airport

latitude: 33-59-14N, longitude: 074-46-27E, elevation: 1655 m

Current weather observation

The report was made 49 minutes ago, at 09:30 UTC
Wind 5 kt from the West/Southwest
Temperature 31°C
Humidity 38%
Pressure 1013 hPa
Visibility: 6000 m
Few clouds at a height of 2500 ft
Scattered clouds at a height of 8000 ft

METAR: VISR 210930Z 25005KT 6000 FEW025 SCT080 31/15 Q1013 NOSIG

Time: 15:49 (10:19 UTC)


TAF: missing

Weather observations and forecasts of more than 4000 airports (METAR and TAF reports).

The available stations are represented by yellow and red dots on the map.

Hover mouse over dot to see the name of the station.

Then click to see weather observations and forecasts.

To change the map : click on the green buttons with a black cross to zoom in, on the green button with a dash to zoom out, or on the green arrows for adjacent maps.


METAR-TAF: